Home   Weather   Portimão   Past weeks
Flag for Portugal

Past Weather in Portimão, Portugal — August 2018

Now
63 °F

Light rain. Passing clouds.


Feels Like: 63 °F
Forecast: 53 / 60 °F
Wind: 17 mph from Southwest

Location: Faro / Aeroporto

Current Time: Dec 13, 2018 at 4:05:14 am

Latest Report: Dec 13, 2018 at 3:00 am


Visibility: N/A

Pressure: 30.07 "Hg

Humidity: 88%

Dew Point: 59 °F

Location of PortimãoLocation

August 2018 Weather in Portimão — Graph

°F

High & Low Weather Summary for August 2018

 TemperatureHumidityPressure
High99 °F (Aug 4, 9:30 pm)94% (Aug 16, 3:00 am)30.09 "Hg (Aug 16, 3:00 am)
Low64 °F (Aug 10, 7:00 am)16% (Aug 7, 4:30 pm)29.80 "Hg (Aug 7, 6:30 pm)
Average78 °F57%29.96 "Hg
* Reported Aug 1 12:00 am — Aug 31 11:30 pm, Portimão. Weather by CustomWeather, © 2018

Note: Actual official high and low records may vary slightly from our data, if they occured in-between our weather recording intervals... More about our weather records

Advertising

Portimão Weather History for August 1, 2018

Scroll right to see more
 ConditionsComfort  
Time TempWeatherWind HumidityBarometerVisibility
12:00 am
Wed, Aug 1
82 °FClear.8 mph51%29.89 "Hg10 mi
12:30 am81 °FClear.8 mph54%29.89 "Hg10 mi
1:00 am81 °FClear.7 mph54%29.89 "Hg10 mi
1:30 am81 °FClear.7 mph54%29.89 "Hg10 mi
2:30 am79 °FClear.9 mph58%29.89 "Hg10 mi
3:00 am79 °FClear.10 mph58%29.86 "Hg10 mi
3:30 am79 °FClear.8 mph54%29.86 "Hg10 mi
4:00 am79 °FClear.8 mph54%29.86 "Hg10 mi
4:30 am79 °FPassing clouds.5 mph51%29.86 "HgN/A
5:00 am79 °FClear.No wind51%29.86 "Hg10 mi
5:30 am77 °FClear.3 mph54%29.86 "Hg10 mi
6:00 am70 °FClear.3 mph78%29.86 "Hg10 mi
6:30 am72 °FClear.5 mph73%29.89 "Hg10 mi
7:00 am68 °FPassing clouds.5 mph83%29.89 "HgN/A
7:30 am72 °FSunny.2 mph78%29.89 "Hg10 mi
8:00 am72 °FSunny.3 mph78%29.89 "Hg10 mi
8:30 am73 °FPassing clouds.3 mph74%29.89 "HgN/A
9:00 am75 °FSunny.2 mph69%29.89 "Hg10 mi
9:30 am77 °FPassing clouds.3 mph65%29.89 "HgN/A
10:00 am79 °FPassing clouds.5 mph61%29.89 "HgN/A
10:30 am81 °FSunny.5 mph58%29.89 "Hg10 mi
11:00 am82 °FPassing clouds.5 mph58%29.89 "HgN/A
11:30 am82 °FPassing clouds.6 mph58%29.89 "HgN/A
12:00 pm86 °FSunny.12 mph43%29.89 "Hg10 mi
12:30 pm88 °FSunny.13 mph38%29.89 "Hg10 mi
1:00 pm90 °FSunny.13 mph38%29.89 "Hg10 mi
1:30 pm93 °FSunny.14 mph34%29.86 "Hg10 mi
2:00 pm91 °FSunny.14 mph34%29.86 "Hg10 mi
2:30 pm95 °FSunny.12 mph32%29.86 "Hg10 mi
3:00 pm95 °FSunny.12 mph28%29.86 "Hg10 mi
3:30 pm97 °FSunny.9 mph23%29.86 "Hg10 mi
4:00 pm88 °FPassing clouds.7 mph40%29.86 "HgN/A
4:30 pm84 °FPassing clouds.6 mph48%29.86 "HgN/A
5:00 pm84 °FPassing clouds.6 mph43%29.86 "HgN/A
5:30 pm90 °FPassing clouds.3 mph33%29.86 "HgN/A
6:00 pm91 °FSunny.8 mph26%29.83 "Hg10 mi
6:30 pm93 °FSunny.9 mph21%29.83 "Hg10 mi
7:00 pm91 °FSunny.10 mph24%29.83 "Hg10 mi
7:30 pm90 °FSunny.9 mph26%29.83 "Hg10 mi
8:00 pm90 °FSunny.8 mph27%29.83 "Hg10 mi
8:30 pm88 °FSunny.8 mph31%29.83 "Hg10 mi
9:00 pm86 °FClear.8 mph33%29.86 "Hg10 mi
9:30 pm86 °FClear.10 mph35%29.86 "Hg10 mi
10:00 pm86 °FClear.10 mph33%29.86 "Hg10 mi
10:30 pm86 °FClear.9 mph33%29.86 "Hg10 mi
11:00 pm84 °FClear.10 mph33%29.89 "Hg10 mi
11:30 pm84 °FPassing clouds.10 mph33%29.89 "HgN/A
Weather by CustomWeather, © 2018

See weather overview